This demonstration page uses our WeatherBlox Daily Observations layout. Learn more.

Left ArrowRight Arrow

44.8408, -93.29828

Hourly Observations for March 25, 2022

Temp ( °F °C ) Dew Point ( °F °C ) Humidity (%) Winds ( mph kmh ) Pressure ( in mb ) Visibility ( mi km ) Precip ( " mm )
12:53 am 00:53 Partly Cloudy 39 3.9 33 0.6 79 79 WSW 6 9 29.78 1008 10 16 0.00 0.00
1:53 am 01:53 Cloudy 40 4.4 34 1.1 79 79 WSW 9 15 29.77 1008 10 16 0.00 0.00
2:26 am 02:26 Cloudy 40 4.4 34 1.1 79 79 WSW 8 13 29.77 1008 10 16 0.00 0.00
2:40 am 02:40 Cloudy 40 4.4 34 1.1 79 79 WSW 7 11 29.77 1008 10 16 0.00 0.00
2:53 am 02:53 Cloudy 40 4.4 34 1.1 79 79 WSW 9 15 29.75 1008 10 16 0.00 0.00
3:53 am 03:53 Cloudy 40 4.4 35 1.7 83 83 W 9 15 29.74 1007 10 16 0.00 0.00
4:53 am 04:53 Cloudy 41 5 35 1.7 79 79 W 9 15 29.73 1007 10 16 0.00 0.00
5:53 am 05:53 Cloudy 41 5 32 0 70 70 WNW 17 28 29.74 1007 10 16 0.00 0.00
6:53 am 06:53 Cloudy 39 3.9 29 -1.7 67 67 WNW 23 37 29.76 1008 10 16 0.00 0.00
7:53 am 07:53 Cloudy 37 2.8 30 -1.1 76 76 WNW 18 30 29.78 1008 10 16 0.00 0.00
8:53 am 08:53 Cloudy 38 3.3 28 -2.2 68 68 WNW 15 24 29.78 1008 10 16 0.00 0.00
9:29 am 09:29 Cloudy 38 3.3 26 -3.3 62 62 WNW 18 30 29.79 1009 10 16 0.00 0.00
9:48 am 09:48 Cloudy 37 3 27 -3 65 65 WNW 24 39 29.79 1009 10 16 0.00 0.00
9:53 am 09:53 Cloudy 38 3.3 26 -3.3 62 62 WNW 17 28 29.78 1008 10 16 0.00 0.00
10:44 am 10:44 Cloudy 37 2.8 24 -4.4 59 59 WNW 24 39 29.80 1009 10 16 0.00 0.00
10:53 am 10:53 Cloudy 37 2.8 24 -4.4 59 59 WNW 24 39 29.78 1009 10 16 0.00 0.00
11:51 am 11:51 Windy with Snow Likely 37 3 25 -4 60 60 NW 22 35 29.78 1009 8 13 0.00 0.00
11:53 am 11:53 Windy with Snow Likely 38 3.3 25 -3.9 60 60 NW 23 37 29.77 1008 8 13 0.00 0.00
12:24 pm 12:24 Mostly Cloudy 38 3.3 27 -2.8 65 65 NW 17 28 29.78 1009 7 11 0.00 0.00
12:41 pm 12:41 Windy with Snow Likely 38 3.3 25 -3.9 60 60 NW 25 41 29.78 1009 4 6 0.00 0.00
12:53 pm 12:53 Windy with Snow Likely 37 2.8 26 -3.3 65 65 NW 32 52 29.77 1008 5 8 0.00 0.00
12:59 pm 12:59 Cloudy 39 3.9 25 -3.9 57 57 NW 23 37 29.78 1009 7 11 0.00 0.00
1:05 pm 13:05 Windy with Snow Likely 36 2.2 24 -4.4 62 62 NW 30 48 29.79 1009 3 5 0.00 0.00
1:21 pm 13:21 Windy with Snow Likely 33 0.6 27 -2.8 78 78 WNW 25 41 29.81 1010 1 1 0.00 0.00
1:26 pm 13:26 Cloudy with Heavy Snow 32 0 28 -2.2 85 85 WNW 23 37 29.82 1010 0 0 0.00 0.00
1:35 pm 13:35 Windy with Snow Likely 33 0.6 30 -1.1 89 89 NW 21 33 29.81 1010 2 3 0.01 0.25
1:42 pm 13:42 Windy with Snow Likely 34 1.1 30 -1.1 85 85 NW 24 39 29.81 1010 2 2 0.01 0.25
1:53 pm 13:53 Windy with Snow Likely 34 1.1 28 -2.2 79 79 NW 28 44 29.80 1009 2 3 0.01 0.25
2:03 pm 14:03 Windy with Snow Likely 34 1.1 26 -3.3 73 73 NW 25 41 29.81 1010 3 5 0.00 0.00
2:10 pm 14:10 Windy with Snow Likely 34 1.1 25 -3.9 70 70 NW 26 43 29.82 1010 6 10 0.00 0.00
2:19 pm 14:19 Windy with Snow Likely 35 1.7 25 -3.9 67 67 NNW 26 43 29.82 1010 9 14 0.00 0.00
2:27 pm 14:27 Cloudy 35 1.7 24 -4.4 64 64 NNW 29 46 29.82 1010 9 14 0.00 0.00
2:53 pm 14:53 Cloudy 36 2.2 23 -5 59 59 NW 23 37 29.80 1009 10 16 0.00 0.00
3:12 pm 15:12 Windy with Snow Likely 36 2.2 23 -5 59 59 NW 29 46 29.82 1010 9 14 0.00 0.00
3:53 pm 15:53 Cloudy 37 2.8 25 -3.9 62 62 NW 29 46 29.81 1010 10 16 0.00 0.00
4:23 pm 16:23 Windy with Snow Likely 38 3.3 21 -6.1 51 51 NW 32 52 29.82 1010 10 16 0.00 0.00
4:53 pm 16:53 Cloudy with Light Rain/Snow 38 3.3 20 -6.7 48 48 NW 32 52 29.81 1010 10 16 0.00 0.00
5:21 pm 17:21 Mostly Cloudy 39 3.9 21 -6.1 48 48 NW 31 50 29.84 1011 10 16 0.00 0.00
5:44 pm 17:44 Mostly Cloudy with Light Snow 38 3.3 18 -7.8 44 44 NW 32 52 29.85 1011 9 14 0.00 0.00
5:53 pm 17:53 Mostly Cloudy with Light Snow 37 2.8 18 -7.8 46 46 NW 32 52 29.84 1011 9 14 0.00 0.00
6:19 pm 18:19 Mostly Cloudy 38 3.3 18 -7.8 44 44 NW 26 43 29.86 1011 9 14 0.00 0.00
6:53 pm 18:53 Mostly Cloudy with Light Snow 35 1.7 16 -8.9 46 46 NW 33 54 29.86 1011 10 16 0.00 0.00
7:01 pm 19:01 Mostly Cloudy 35 1.7 15 -9.4 44 44 NW 28 44 29.88 1012 10 16 0.00 0.00
7:53 pm 19:53 Mostly Cloudy 33 0.6 15 -9.4 47 47 NW 24 39 29.88 1012 10 16 0.00 0.00
8:53 pm 20:53 Mostly Clear 31 -0.6 12 -11.1 45 45 NW 22 35 29.91 1013 10 16 0.00 0.00
9:53 pm 21:53 Mostly Clear 30 -1.1 12 -11.1 47 47 NW 16 26 29.92 1013 10 16 0.00 0.00
10:53 pm 22:53 Clear 28 -2.2 10 -12.2 47 47 NNW 17 28 29.93 1013 10 16 0.00 0.00
11:53 pm 23:53 Clear 26 -3.3 8 -13.3 46 46 NW 18 30 29.96 1014 10 16 0.00 0.00

Powered by AerisWeather